Regional Weather Roundup
Issued by NWS

Home | Current Version | Previous Version | Graphics & Text | Print | Product List | Glossary On
Versions: 1 2 3 4 5 6 7 8 9 10 11 12 13 14 15 16 17 18 19 20 21 22 23 24 25 26 27 28 29 30 31 32 33 34 35 36 37 38 39 40 41 42 43 44 45 46 47 48 49 50
000
ASUS45 KABQ 190310
RWRNM
WEATHER ROUNDUP FOR NEW MEXICO
NATIONAL WEATHER SERVICE ALBUQUERQUE NM
800 PM MST THU DEC 18 2014

NOTE: "FAIR" MEANS FEW OR NO CLOUDS BELOW 12,000 FEET AGL WITH NO
       SIGNIFICANT WEATHER OR OBSTRUCTIONS TO VISION.

      THIS PRODUCT IS RELEASED AS TWO VERSIONS.  ONE VERSION NEAR
      THE TOP OF THE HOUR CONTAINING PRELIMINARY DATA FROM ALBUQUERQUE
      AND OTHER STATIONS.  A FINAL VERSION WITH ADDITIONAL DATA IS
      ISSUED ABOUT 10 MINUTES AFTER THE HOUR.

NMZ501-503-504-510>518-190400-
NORTHWEST PLATEAU/NORTHCENTRAL MOUNTAINS

CITY           SKY/WX    TMP DP  RH WIND       PRES   REMARKS
FARMINGTON     CLEAR     31  27  85 SW5       30.15R WCI  26
LOS ALAMOS     CLOUDY    31  25  78 CALM      30.11S
SANTA FE       CLOUDY    31  25  78 N5        30.09S WCI  26
TAOS           CLOUDY    27  23  86 NW5       30.11R WCI  21
ANGEL FIRE     CLOUDY    27  21  79 CALM      30.09R

$$
NMZ402-403-502-505>509-190400-
WESTCENTRAL MOUNTAINS/SOUTHWEST MOUNTAINS

CITY           SKY/WX    TMP DP  RH WIND       PRES   REMARKS
GALLUP         CLOUDY    27  25  92 W5        30.18R WCI  22
GRANTS         PTCLDY    27  26  95 CALM      30.16S
SILVER CITY    MOCLDY    37  36  93 NW12G20   30.15S WCI  30

$$
NMZ407-409-411-412-190400-
SOUTHERN DESERTS

CITY           SKY/WX    TMP DP  RH WIND       PRES   REMARKS
LORDSBURG      FAIR      41  39  93 W5        30.16R
DEMING         PTCLDY    39  38  96 SW5       30.14R
LAS CRUCES     MOCLDY    40  38  93 W6        30.15R
HOLLOMAN AFB   MOCLDY    41  41 100 N5        30.13R
ALAMOGORDO     LGT RAIN  41  39  93 W3        30.15R
T OR C         LGT RAIN  41  39  93 NE5       30.13R

$$
NMZ519>523-190400-
CENTRAL VALLEYS/CENTRAL HIGHLANDS

CITY           SKY/WX    TMP DP  RH WIND       PRES   REMARKS
ALBUQUERQUE    CLOUDY    39  28  64 CALM      30.13R
DOUBLE EAGLE   MOCLDY    34  28  80 W6        30.13R WCI  29
MORIARTY ARPT  FAIR      31  24  73 NW5       30.11S WCI  27
CLINES CORNERS CLOUDY    30  23  75 W13       30.06R WCI  20
BELEN          FAIR      33  32  96 W7        30.13S WCI  27
SOCORRO        FAIR      37  35  92 NW6       30.13S WCI  32

$$
NMZ524>526-539-540-190400-
SOUTHCENTRAL MOUNTAINS

CITY           SKY/WX    TMP DP  RH WIND       PRES   REMARKS
RUIDOSO        CLOUDY    32  28  86 NW5       30.13R WCI  27

$$
NMZ527>531-190400-
NORTHEAST HIGHLANDS/NORTHEAST PLAINS

CITY           SKY/WX    TMP DP  RH WIND       PRES   REMARKS
LAS VEGAS      CLOUDY    30  18  60 NE6       30.04R WCI  24
RATON          CLOUDY    33  26  75 VRB3      30.06R
CLAYTON        PTCLDY    27  26  96 CALM      30.09S FOG

$$
NMZ532>537-190400-
EASTCENTRAL PLAINS

CITY           SKY/WX    TMP DP  RH WIND       PRES   REMARKS
TUCUMCARI      CLOUDY    39  28  64 NE6       30.08R WCI  35
CANNON AFB     CLOUDY    40  32  75 E10       30.08R WCI  33
CLOVIS AIRPORT CLOUDY    37  30  75 E10       30.09R WCI  30

$$
NMZ028-029-538-190400-
SOUTHEAST PLAINS

CITY           SKY/WX    TMP DP  RH WIND       PRES   REMARKS
ROSWELL        CLOUDY    49  31  49 NW8       30.07R
ARTESIA        CLOUDY    52  34  50 SW3       30.08R
CARLSBAD       CLOUDY    55  33  43 N8        30.06R
HOBBS          CLOUDY    50  32  50 CALM      30.09R


$$


USA.gov is the U.S. government's official web portal to all federal, state and local government web resources and services.